[[{"header":{"parameterUnit":"m.s-1","parameterCategory":1,"la1":30.2991,"la2":30.254,"lo1":-89.0895,"lo2":-89.0444,"dy":0.0017,"dx":0.0017,"nx":28,"ny":28,"refTime":"2024-07-25T03:00:00:Z","depth":0,"parameterNumber":2,"parameterNumberName":"U-component_of_WINDS"},"data":[0,0,0,0,0,0,0,0,0,0,0,0,0,0,0,0,0,0,0,0,0,0,0,0,0,0,0,0,0,0,0,0,0,0,0,0,0,0,0,0,0,0,0,0,0,0,0,0,0,0,0,0,0,0,0,0,0,0,-1.7757,-1.776,0,-1.8024,-1.8027,-1.803,-1.822,-1.8222,-1.8223,-1.8225,-1.8493,-1.8499,-1.8505,0,0,0,0,0,0,0,0,0,0,0,0,0,-1.7409,-1.7414,-1.7757,-1.776,-1.7764,-1.8023,-1.8027,-1.8031,-1.822,-1.8222,-1.8224,-1.8226,-1.8492,-1.8498,-1.8505,0,0,0,0,0,0,0,0,0,0,0,0,0,-1.7606,-1.7416,-1.7756,-1.789,-1.7904,-1.8023,-1.8027,-1.8032,-1.822,-1.8222,-1.8224,-1.8227,-1.8489,-1.8498,-1.8506,-1.8512,0,0,-1.8532,-1.8536,0,0,0,0,0,0,0,0,-1.7595,-1.7619,-1.7867,-1.7881,-1.7897,-1.8091,-1.8003,-1.8192,-1.8219,-1.81,-1.8225,-1.8228,-1.8357,-1.8377,-1.8422,-1.8524,-1.8536,-1.8533,-1.8538,-1.8542,-1.8544,0,0,0,0,0,0,0,-1.7581,-1.7608,-1.7862,-1.787,-1.7889,-1.7935,-1.7966,-1.804,-1.8212,-1.811,-1.8125,-1.8154,-1.8366,-1.8413,-1.8429,-1.854,-1.8533,-1.854,-1.8545,-1.8549,-1.8662,-1.866,0,0,0,0,0,0,-1.7547,-1.7596,-1.7854,-1.787,-1.7749,-1.7939,-1.7974,-1.8027,-1.8212,-1.8242,-1.8152,-1.8162,-1.8397,-1.8419,-1.8439,-1.8458,-1.8542,-1.855,-1.8555,-1.8664,-1.8661,-1.8659,0,0,0,0,0,0,-1.7539,-1.7568,-1.7843,-1.7737,-1.7776,-1.7943,-1.8001,-1.8031,-1.8078,-1.8243,-1.8274,-1.8168,-1.84,-1.8428,-1.8493,-1.847,-1.8554,-1.8561,-1.8666,-1.8663,-1.866,-1.8494,0,0,0,0,0,0,-1.7528,-1.7564,-1.7568,-1.7736,-1.7781,-1.7892,-1.8,-1.8034,-1.8092,-1.8108,-1.8267,-1.8295,-1.8404,-1.8479,-1.8501,-1.8483,-1.8568,-1.8669,-1.8665,-1.8661,-1.8502,-1.8486,-1.8472,0,0,0,0,0,-1.7515,-1.751,-1.7567,-1.7597,-1.779,-1.789,-1.7916,-1.8042,-1.809,-1.8095,-1.8202,-1.829,-1.847,-1.8484,-1.8511,-1.8495,-1.8671,-1.8666,-1.8661,-1.8509,-1.8489,-1.8472,0,0,0,0,0,0,-1.7332,-1.7534,-1.76,-1.765,-1.7752,-1.7922,-1.7932,-1.8017,-1.8106,-1.8117,-1.827,-1.8304,-1.8353,-1.8432,-1.8444,-1.8511,-1.8581,-1.8582,-1.8457,-1.8439,-1.8424,-1.8402,-1.8575,0,0,0,0,0,-1.7299,-1.7365,-1.7537,-1.7564,-1.7612,-1.7763,-1.7812,-1.7901,-1.8012,-1.8055,-1.8167,-1.827,-1.8351,-1.84,-1.8483,-1.8517,-1.8553,-1.8519,-1.8503,-1.849,-1.8487,-1.851,-1.8497,-1.8643,-1.8643,-1.8643,0,0,-1.7228,-1.7346,-1.7378,-1.753,-1.762,-1.7684,-1.7798,-1.786,-1.7909,-1.8065,-1.8133,-1.8219,-1.8345,-1.8394,-1.8421,-1.8461,-1.8456,-1.8484,-1.8472,-1.8477,-1.8504,-1.849,-1.8477,-1.864,-1.8641,-1.8641,0,0,-1.7131,-1.7228,-1.7261,-1.7349,-1.7485,-1.7586,-1.7593,-1.7753,-1.7816,-1.7888,-1.8006,-1.8066,-1.8201,-1.8286,-1.8346,-1.8285,-1.8369,-1.8308,-1.8226,-1.8247,-1.8235,-1.8225,-1.8201,-1.8191,-1.8306,-1.8305,-1.8305,0,-1.7025,-1.7127,-1.7267,-1.7323,-1.7386,-1.7533,-1.7567,-1.7645,-1.7799,-1.7839,-1.7882,-1.8056,-1.8151,-1.8222,-1.8207,-1.8252,-1.8265,-1.8288,-1.8226,-1.8218,-1.8211,-1.8189,-1.818,-1.8297,-1.8298,-1.8299,-1.83,0,-1.699,-1.7059,-1.7069,-1.7216,-1.7281,-1.7325,-1.7471,-1.752,-1.7604,-1.77,-1.7772,-1.7892,-1.8002,-1.8026,-1.8109,-1.8109,-1.813,-1.8197,-1.827,-1.8186,-1.8168,-1.8162,-1.8285,-1.8288,-1.829,-1.8292,0,0,-1.6781,-1.7008,-1.7008,-1.7077,-1.7239,-1.7294,-1.7346,-1.7455,-1.7493,-1.7596,-1.7642,-1.7754,-1.7819,-1.7887,-1.7982,-1.8,-1.7942,-1.8067,-1.8072,-1.8036,-1.7949,-1.7893,-1.7882,-1.8001,-1.8001,-1.8,-1.7937,0,-1.6707,-1.6808,-1.6936,-1.6993,-1.7057,-1.72,-1.7245,-1.7348,-1.7441,-1.7509,-1.7612,-1.7688,-1.7768,-1.7811,-1.7836,-1.7943,-1.7926,-1.7951,-1.8043,-1.8045,-1.8003,-1.7873,-1.7815,-1.775,-1.7932,-1.7931,-1.793,0,-1.6632,-1.6729,-1.6792,-1.6949,-1.6981,-1.7019,-1.713,-1.7194,-1.7315,-1.7381,-1.7459,-1.7561,-1.7623,-1.7691,-1.7777,-1.7791,-1.7838,-1.7896,-1.7897,-1.7907,-1.7978,-1.7876,-1.7732,-1.772,-1.7921,-1.7922,-1.7922,0,-1.647,-1.6616,-1.6673,-1.6728,-1.6913,-1.6936,-1.7014,-1.7138,-1.7196,-1.7293,-1.7332,-1.7435,-1.749,-1.7567,-1.7694,-1.7733,-1.7766,-1.7845,-1.7821,-1.7817,-1.7817,-1.7814,-1.7674,-1.7853,-1.7853,-1.7853,-1.7853,0,-1.6371,-1.6403,-1.6603,-1.6636,-1.6677,-1.6826,-1.6862,-1.6953,-1.7062,-1.7116,-1.7247,-1.7295,-1.7462,-1.753,-1.763,-1.7685,-1.771,-1.7764,-1.7789,-1.775,-1.7742,-1.7779,-1.7785,-1.7851,-1.7851,-1.7852,-1.7852,0,-1.6194,-1.6329,-1.64,-1.6571,-1.6615,-1.6637,-1.6783,-1.6821,-1.6924,-1.699,-1.7015,-1.7173,-1.726,-1.7396,-1.7523,-1.7591,-1.7627,-1.7672,-1.7586,-1.7601,-1.7567,-1.7567,-1.7442,-1.7432,-1.7619,-1.7617,-1.7616,0,-1.6119,-1.6148,-1.6322,-1.6369,-1.6443,-1.6516,-1.6576,-1.6724,-1.6781,-1.6923,-1.6943,-1.7041,-1.7126,-1.7258,-1.7384,-1.7482,-1.7528,-1.7479,-1.7543,-1.7503,-1.7524,-1.7519,-1.7521,-1.7461,-1.7458,-1.7456,-1.7454,0,-1.5972,-1.6038,-1.6121,-1.6226,-1.6295,-1.6385,-1.6482,-1.6513,-1.6682,-1.674,-1.6831,-1.6897,-1.7028,-1.7122,-1.7238,-1.7319,-1.7413,-1.7434,-1.7433,-1.739,-1.7337,-1.7362,-1.754,-1.7434,-1.7436,-1.7438,-1.7439,-1.744,-1.5842,-1.5874,-1.6002,-1.6089,-1.6178,-1.6266,-1.6311,-1.6419,-1.6498,-1.6616,-1.67,-1.6785,-1.6908,-1.7073,-1.7149,-1.7218,-1.726,-1.7258,-1.7258,-1.7254,-1.7238,-1.733,-1.724,-1.7241,-1.7242,-1.7243,-1.7243,0,-1.5698,-1.5789,-1.5868,-1.6,-1.6069,-1.6156,-1.6268,-1.6319,-1.6393,-1.65,-1.6582,-1.6686,-1.678,-1.6915,-1.7018,-1.7047,-1.7093,-1.7069,-1.7066,-1.7082,-1.7196,-1.7185,-1.703,-1.703,-1.703,-1.703,-1.703,-1.703,-1.5631,-1.5689,-1.5771,-1.5874,-1.5965,-1.605,-1.6106,-1.6188,-1.6274,-1.6385,-1.6463,-1.6552,-1.6671,-1.6784,-1.6874,-1.6911,-1.6941,-1.6903,-1.6953,-1.7055,-1.7075,-1.7093,-1.7083,-1.6909,-1.6909,-1.6833,-1.6833,-1.6832]},{"header":{"parameterUnit":"m.s-1","parameterCategory":1,"la1":30.2991,"la2":30.254,"lo1":-89.0895,"lo2":-89.0444,"dy":0.0017,"dx":0.0017,"nx":28,"ny":28,"refTime":"2024-07-25T03:00:00:Z","depth":0,"parameterNumber":3,"parameterNumberName":"V-component_of_WINDS"},"data":[0,0,0,0,0,0,0,0,0,0,0,0,0,0,0,0,0,0,0,0,0,0,0,0,0,0,0,0,0,0,0,0,0,0,0,0,0,0,0,0,0,0,0,0,0,0,0,0,0,0,0,0,0,0,0,0,0,0,0.0928,0.093,0,0.1071,0.1072,0.1074,0.1078,0.1076,0.1074,0.1073,0.1207,0.1212,0.1217,0,0,0,0,0,0,0,0,0,0,0,0,0,0.0652,0.0657,0.0928,0.093,0.0932,0.1071,0.1072,0.1074,0.1078,0.1076,0.1074,0.1072,0.1206,0.1212,0.1218,0,0,0,0,0,0,0,0,0,0,0,0,0,0.078,0.0658,0.0928,0.0951,0.0954,0.107,0.1073,0.1075,0.1079,0.1076,0.1073,0.1071,0.1204,0.1211,0.1219,0.1318,0,0,0.1242,0.1246,0,0,0,0,0,0,0,0,0.0773,0.0791,0.0946,0.0949,0.0954,0.1054,0.1024,0.1156,0.1079,0.1031,0.1073,0.107,0.1158,0.1169,0.1201,0.1324,0.133,0.1243,0.1248,0.1251,0.1253,0,0,0,0,0,0,0,0.0764,0.0784,0.0984,0.0948,0.0953,0.0951,0.0967,0.1049,0.1106,0.1035,0.1036,0.1053,0.1159,0.1193,0.1204,0.1332,0.1243,0.125,0.1255,0.1258,0.1547,0.155,0,0,0,0,0,0,0.0752,0.0777,0.098,0.0989,0.0856,0.0958,0.0976,0.1024,0.1106,0.1116,0.1055,0.1053,0.1181,0.1195,0.1209,0.1333,0.1251,0.1258,0.1263,0.1544,0.1548,0.1551,0,0,0,0,0,0,0.0746,0.077,0.0974,0.0883,0.0909,0.0966,0.102,0.1028,0.1063,0.1121,0.113,0.108,0.118,0.1198,0.1292,0.1337,0.1262,0.1269,0.1541,0.1545,0.1549,0.158,0,0,0,0,0,0,0.0738,0.0768,0.0808,0.0884,0.0914,0.1058,0.1023,0.1033,0.1078,0.1076,0.1147,0.1156,0.1179,0.1281,0.13,0.1347,0.1275,0.1537,0.1543,0.1548,0.1575,0.1585,0.1593,0,0,0,0,0,0.0728,0.0807,0.081,0.0834,0.0965,0.106,0.1077,0.1105,0.1081,0.1121,0.1159,0.1154,0.133,0.1291,0.1312,0.1362,0.1534,0.1541,0.1548,0.1571,0.1583,0.1593,0,0,0,0,0,0,0.0729,0.0817,0.0821,0.0928,0.0987,0.1061,0.1111,0.1116,0.118,0.1175,0.1204,0.122,0.1315,0.1347,0.1302,0.1464,0.1429,0.144,0.1439,0.1451,0.146,0.1449,0.1281,0,0,0,0,0,0.0743,0.0815,0.0887,0.0974,0.1004,0.1053,0.1095,0.1113,0.1173,0.1197,0.1242,0.1298,0.1367,0.141,0.1476,0.158,0.1596,0.1625,0.1634,0.1642,0.1651,0.1711,0.1725,0.1574,0.1574,0.1573,0,0,0.0769,0.0826,0.0869,0.0976,0.1024,0.1097,0.1074,0.115,0.1204,0.1207,0.1301,0.1336,0.1401,0.1502,0.1548,0.1532,0.1697,0.165,0.1656,0.1661,0.1719,0.1733,0.1746,0.1578,0.1577,0.1577,0,0,0.0855,0.0906,0.0986,0.1036,0.1111,0.1144,0.1164,0.1238,0.1263,0.1359,0.1364,0.1427,0.1543,0.1591,0.163,0.174,0.1738,0.176,0.1807,0.1865,0.1877,0.1888,0.1928,0.1942,0.1769,0.177,0.177,0,0.0877,0.099,0.1024,0.1104,0.1151,0.1164,0.1244,0.129,0.1381,0.1412,0.1394,0.1544,0.1588,0.1701,0.1729,0.176,0.1782,0.1751,0.1874,0.1885,0.1895,0.1934,0.1949,0.1772,0.1772,0.1771,0.1771,0,0.1015,0.1093,0.1148,0.1243,0.1296,0.1374,0.142,0.1469,0.1483,0.1517,0.1615,0.167,0.1749,0.1777,0.1788,0.1893,0.1881,0.1868,0.1833,0.1911,0.1948,0.1963,0.1775,0.1774,0.1774,0.1773,0,0,0.11,0.1218,0.1238,0.1282,0.1369,0.1429,0.1509,0.1591,0.1633,0.1696,0.1764,0.1865,0.1856,0.19,0.1918,0.1969,0.2055,0.195,0.1952,0.1968,0.2174,0.2184,0.22,0.2055,0.2058,0.206,0.2169,0,0.1196,0.1344,0.138,0.1505,0.1579,0.1594,0.1664,0.1724,0.1759,0.1824,0.1861,0.1934,0.1915,0.1942,0.1994,0.2033,0.2096,0.2026,0.2116,0.2119,0.2099,0.2219,0.2229,0.2328,0.2184,0.2186,0.2188,0,0.1327,0.14,0.1534,0.1616,0.1648,0.1711,0.1791,0.1854,0.1922,0.1944,0.1998,0.2012,0.2094,0.2057,0.2171,0.2123,0.2162,0.2187,0.2192,0.22,0.2157,0.2231,0.2361,0.2376,0.2211,0.2209,0.2207,0,0.1377,0.1509,0.1607,0.1645,0.1742,0.1786,0.1828,0.1894,0.1943,0.2012,0.2044,0.2119,0.216,0.2218,0.2252,0.2222,0.2364,0.2329,0.2383,0.2382,0.241,0.2408,0.2548,0.2437,0.2436,0.2436,0.2436,0,0.148,0.1562,0.1632,0.1692,0.1785,0.1825,0.1914,0.1955,0.2016,0.2083,0.2099,0.2161,0.2202,0.227,0.2296,0.2388,0.2405,0.2424,0.243,0.2423,0.2421,0.2448,0.2441,0.244,0.2439,0.2438,0.2438,0,0.1551,0.1602,0.1711,0.1797,0.182,0.1884,0.1956,0.2015,0.2053,0.2138,0.216,0.2218,0.2298,0.2339,0.2437,0.2455,0.2559,0.256,0.2537,0.2539,0.2592,0.2586,0.2753,0.2778,0.265,0.2651,0.2652,0,0.1613,0.1677,0.1773,0.1822,0.1867,0.1944,0.1996,0.2039,0.2091,0.2177,0.2225,0.2308,0.2376,0.2504,0.2553,0.2629,0.2632,0.2686,0.2643,0.2635,0.2634,0.2629,0.2636,0.2693,0.2694,0.2695,0.2696,0,0.1718,0.1742,0.1818,0.1905,0.1968,0.2036,0.2103,0.2142,0.2195,0.2253,0.2339,0.2393,0.2498,0.2579,0.2661,0.27,0.2707,0.271,0.2726,0.2719,0.2703,0.2713,0.2558,0.2705,0.2704,0.2703,0.2703,0.2702,0.1786,0.1846,0.1924,0.201,0.2067,0.2131,0.2192,0.224,0.2314,0.2406,0.2426,0.2517,0.2586,0.2697,0.274,0.281,0.2798,0.2821,0.2827,0.2833,0.2836,0.2694,0.2824,0.2824,0.2824,0.2824,0.2824,0,0.1893,0.1946,0.2025,0.2122,0.219,0.2197,0.2273,0.2327,0.2409,0.2476,0.2545,0.2645,0.2726,0.2784,0.2865,0.291,0.2916,0.293,0.2927,0.2936,0.2841,0.2819,0.2925,0.2925,0.2925,0.2925,0.2925,0.2925,0.1956,0.2058,0.2092,0.2223,0.2274,0.2368,0.2411,0.247,0.2524,0.2637,0.2706,0.2746,0.2809,0.2896,0.297,0.2985,0.3014,0.3029,0.3043,0.2953,0.2942,0.2932,0.2912,0.3035,0.3035,0.3132,0.3133,0.3134]}]]